Location: Asis
(14.1331°N, 120.9056°E)
Time: 03:32:20
(UTC+00:00)

Resurs 1-3 - Pass Details

Date: 15 January 2026
Orbit: 612 x 615 km, 97.7° (Epoch: 17 February)

Event Time Altitude Azimuth Distance (km) Brightness Sun altitude
Rises 10:53:58 0° 176° (S) 2,872 7.2 -16.1°
Reaches altitude 10° 10:56:10 10° 180° (S) 1,968 6.4 -16.6°
Maximum altitude 11:00:23 58° 259° (W) 715 4.2 -17.5°
Drops below altitude 10° 11:04:36 10° 339° (NNW) 1,970 6.2 -18.5°
Sets 11:06:48 0° 343° (NNW) 2,875 7.0 -19.0°
